Regional Weather Roundup
Issued by NWS Portland, ME

Home | Current Version | Previous Version | Text Only | Print | Product List | Glossary On
Versions: 1 2 3 4 5 6 7 8 9 10 11 12 13 14 15 16 17 18 19 20 21 22 23 24 25 26 27 28 29 30 31 32 33 34 35 36 37 38 39 40 41 42 43 44 45 46 47 48 49 50
000
ASUS41 KGYX 291105
RWRGYX
WEATHER ROUNDUP FOR MAINE AND NEW HAMPSHIRE
NATIONAL WEATHER SERVICE GRAY ME
700 AM EDT FRI AUG 29 2014

MEZ002-005-006-010-012-015-018-020-021-024-026-027-029-291200-
MAINE

CITY           SKY/WX    TMP DP  RH WIND       PRES   REMARKS
PORTLAND       CLEAR     58  51  78 NW6       30.11R
SANFORD        CLEAR     57  48  72 NW7       30.11R
BAR HARBOR     CLOUDY    57  52  82 N10G16    30.08R
WISCASSET      SUNNY     56  50  80 CALM      30.11R
ROCKLAND       SUNNY     57  50  77 N6        30.08R
FRYEBURG       CLEAR     50  48  93 CALM      30.12R
LEWISTONAUBURN CLEAR     54  48  82 N3        30.11R
AUGUSTA        SUNNY     53  48  83 NE9       30.11R
WATERVILLE     SUNNY     54  45  71 N8        30.09R
BANGOR         PTSUNNY   57  47  69 N10G22    30.11R
GREENVILLE       N/A     48  43  82 N14       30.10R
MILLINOCKET    SUNNY     54  45  71 N6        30.13R
HOULTON        SUNNY     49  46  90 N3        30.10R
PRESQUE ISLE   SUNNY     45  41  87 CALM      30.11R
FRENCHVILLE    SUNNY     44  41  89 N8        30.11R
CARIBOU        SUNNY     48  43  82 N5        30.11R
$$

NHZ002-005-008-009-011-012-014-291200-
NEW HAMPSHIRE

CITY           SKY/WX    TMP DP  RH WIND       PRES   REMARKS
PORTSMOUTH     CLEAR     57  52  82 NW5       30.10R
ROCHESTER      CLEAR     54  50  86 NW6       30.10R
NASHUA         CLEAR     54  51  89 CALM      30.12R
MANCHESTER     CLEAR     58  51  78 N6        30.10R
CONCORD        CLEAR     50  48  93 CALM      30.12R
LACONIA        CLEAR     55  50  82 CALM      30.10R
PLYMOUTH       FAIR      57  55  94 NW6       30.11R
BERLIN         CLOUDY    58  52  80 CALM      30.15R
WHITEFIELD     CLOUDY    57  52  83 CALM      30.15R
JAFFREY        CLEAR     48  46  93 CALM      30.14R
LEBANON        CLEAR     49  45  86 CALM      30.14R
MT WASHINGTON  FOG       37  37 100 NW24        N/A  VSB 1/16
$$

VTZ005-007-008-291200-
VERMONT

CITY           SKY/WX    TMP DP  RH WIND       PRES   REMARKS
ST JOHNSBURY     N/A     53  51  93 MISG      30.14R
MONTPELIER     CLEAR     51  50  96 CALM      30.19R
BURLINGTON     MOCLDY    59  54  83 CALM      30.17R
$$

MAZ007-012-024-CTZ003-RIZ002-NYZ038-NYZ072-291200-
SOUTHERN NEW ENGLAND AND NY

CITY           SKY/WX    TMP DP  RH WIND       PRES   REMARKS
BOSTON         PTCLDY    61  50  67 NW12      30.10R
WORCESTER      CLEAR     57  49  74 N10       30.12R
NANTUCKET      CLEAR     65  53  65 N9        30.08R
PROVIDENCE     PTCLDY    59  50  72 N6        30.11R
HARTFORD       PTCLDY    55  50  83 CALM      30.12R
ALBANY         PTCLDY    52  49  89 CALM      30.17R
NEW YORK CITY  MOCLDY    64  51  62 NE5       30.14R
$$

ANZ081-ANZ082-ANZ150-NHZ014-MEZ023>029-291200-
COASTAL MARINE OBSERVATIONS

STATION/POSITION TIME  TEMP    WIND        PRES    WAVE
                       AIR SEA DIR/SP/G            HT/PER
                 (UTC) (F)     (DEG/KT/KT) (MB)    (FT/S)
MATINICUS ROCK   1000          360/ 16/ 17 1016.8R
PORTLAND WX BUOY 1050   61 60   10/  8/ 10 1019.2R   3/14
WELLS            1000   56 57  330/  9/ 11 1017.3R
ISLE OF SHOALS   1000   59     310/ 14/ 14 1017.6R
JEFFREYS LEDGE   1021      66                N/A     4/14
CASHES LEDGE BUO 1050   60 65              1017.8R   6/13
$$

.............KEY..............
   WCI - WIND CHILL
   TC  - TEMPERATURE IN CELSIUS
   VSB - VISIBILITY IN MILES
   HX  - HEAT INDEX
   FAIR- INDICATES FEW OR NO CLOUDS BELOW 12,000 FT, WITH NO
         SIGNIFICANT WEATHER AND/OR OBSTRUCTIONS TO VISIBILITY.




USA.gov is the U.S. government's official web portal to all federal, state and local government web resources and services.